Hourly Data Report for October 15, 2016

All times are specified in Local Standard Time (LST). Add 1 hour to adjust for Daylight Saving Time where and when it is observed.

RESOLUTE BAY A
NUNAVUT

74°43'01.000" N
94°58'10.000" W
67.70 m
2403498
71924
YRB

Download Data

Hourly Data (October 2016)
Hourly Data Report for October 15, 2016
Temp Definition
°C
Dew Point Temp Definition
°C
Rel Hum Definition
%
Wind Dir Definition
10's deg

Wind Spd Definition
km/h
Visibility Definition
km
Stn Press Definition
kPa
Hmdx Definition


Wind Chill Definition


Weather Definition


TIME
00:00 Legend Double Dagger -11.4 -13.7 83 10 14 9.7 100.00   -18 Snow
01:00 Legend Double Dagger -11.8 -14.1 83 10 20 16.1 100.01   -20 Snow
02:00 Legend Double Dagger -14.8 -16.5 87 8 28 24.1 100.00   -25 LegendNANA
03:00 Legend Double Dagger -14.5 -16.4 86 9 22 24.1 99.97   -24 Clear
04:00 Legend Double Dagger -13.9 -15.5 88 8 30 24.1 99.94   -25 LegendNANA
05:00 Legend Double Dagger -13.5 -15.2 87 14 25 24.1 99.92   -23 LegendNANA
06:00 Legend Double Dagger -12.9 -14.8 86 12 18 24.1 99.89   -21 Mainly Clear
07:00 Legend Double Dagger -13.8 -15.8 85 7 10 24.1 99.86   -20 LegendNANA
08:00 Legend Double Dagger -13.9 -16.1 84 14 9 24.1 99.84   -20 LegendNANA
09:00 Legend Double Dagger -13.6 -15.5 86 10 15 24.1 99.83   -21 Clear
10:00 Legend Double Dagger -12.8 -14.8 85 11 10 24.1 99.82   -19 LegendNANA
11:00 Legend Double Dagger -11.9 -13.9 85 11 11 24.1 99.80   -18 LegendNANA
12:00 Legend Double Dagger -13.8 -16.0 84 36 4 24.1 99.79   -17 Clear
13:00 Legend Double Dagger -12.1 -14.0 86 10 14 24.1 99.78   -19 LegendNANA
14:00 Legend Double Dagger -10.6 -12.7 85 7 21 24.1 99.75   -19 LegendNANA
15:00 Legend Double Dagger -11.3 -13.8 82 7 30 24.1 99.73   -21 Snow
16:00 Legend Double Dagger -11.1 -13.4 83 6 25 24.1 99.72   -20 Snow
17:00 Legend Double Dagger -12.1 -14.6 82 7 30 24.1 99.71   -22 Snow
18:00 Legend Double Dagger -10.8 -13.3 82 7 27 24.1 99.70   -20 Snow
19:00 Legend Double Dagger -10.6 -12.8 84 6 30 24.1 99.71   -20 Snow
20:00 Legend Double Dagger -10.5 -12.9 83 7 26 24.1 99.69   -20 Snow
21:00 Legend Double Dagger -10.7 -13.2 82 7 23 24.1 99.69   -19 Snow
22:00 Legend Double Dagger -11.1 -13.6 82 5 32 24.1 99.68   -21 Snow
23:00 Legend Double Dagger -11.2 -13.5 83 5 23 24.1 99.69   -20 Snow

Notes on Data Quality.

Legend

  • E = Estimated
  • M = Missing
  • NA = Not Available
  • ‡ = Partner data that is not subject to review by the National Climate Archives
Date modified: